, AK

(GMT )
Portage Glacier

Weather History for PATO - October, 2017

Change the Weather History Date:

Thursday, October 12, 2017

  Actual Average Record
Temperature  
Mean Temperature 37 °F -  
Max Temperature 46 °F - - ()
Min Temperature 28 °F - - ()
Degree Days  
Heating Degree Days 28    
Moisture  
Dew Point 32 °F    
Average Humidity 90    
Maximum Humidity 100    
Minimum Humidity 68    
Precipitation  
Precipitation 0.43 in - - ()
Sea Level Pressure  
Sea Level Pressure 30.13 in    
Wind  
Wind Speed 3 mph (SE)    
Max Wind Speed 16 mph    
Max Gust Speed 34 mph    
Visibility 4 miles    
Events Fog , Rain    
Averages and records for this station are not official NWS values.
T = Trace of Precipitation, MM = Missing Value Source: NWS Daily Summary

Daily Weather History Graph

Daily Weather History Graph

Search for Another Location

Airport or City:

Astronomy

Oct. 12, 2017 Rise Set
Actual Time 8:30 AM AKDT 6:51 PM AKDT
Civil Twilight 7:47 AM AKDT 7:34 PM AKDT
Nautical Twilight 6:57 AM AKDT 8:24 PM AKDT
Astronomical Twilight 6:07 AM AKDT 9:14 PM AKDT
Moon No Moon Rise 4:47 PM AKDT (10/12)
Length of Visible Light 11h 47m
Length of Day
10h 21m
Waning Gibbous, 47% of the Moon is Illuminated
Oct 12
Waning Gibbous
Oct 19
New
Oct 27
First Quarter
Nov 3
Full
Nov 10
Last Quarter

Hourly Weather History & Observations

Time (AKDT) Temp. Windchill Dew Point Humidity Pressure Visibility Wind Dir Wind Speed Gust Speed Precip Events Conditions
12:53 AM 30.9 °F - 28.9 °F 92% 30.19 in 10.0 mi Calm Calm - N/A   Clear
1:42 AM 30.0 °F 26.5 °F 28.9 °F 96% 30.19 in 5.0 mi West 3.5 mph - N/A   Scattered Clouds
1:46 AM 30.0 °F - 28.9 °F 96% 30.19 in 1.8 mi Calm Calm - N/A   Mostly Cloudy
1:53 AM 30.9 °F - 28.9 °F 92% 30.19 in 1.5 mi Calm Calm - N/A   Mostly Cloudy
1:57 AM 30.9 °F - 28.9 °F 92% 30.19 in 3.0 mi Calm Calm - N/A   Mostly Cloudy
2:08 AM 30.9 °F - 28.9 °F 92% 30.19 in 1.8 mi Calm Calm - N/A   Overcast
2:18 AM 30.0 °F - 28.9 °F 96% 30.19 in 0.5 mi Calm Calm - N/A Fog Light Freezing Fog
2:41 AM 30.0 °F - 28.9 °F 96% 30.18 in 1.8 mi Calm Calm - N/A   Mostly Cloudy
2:45 AM 30.0 °F - 28.0 °F 92% 30.18 in 3.0 mi Calm Calm - N/A   Mostly Cloudy
2:53 AM 30.0 °F - 28.9 °F 96% 30.19 in 10.0 mi Calm Calm - N/A   Scattered Clouds
3:15 AM 30.0 °F - 28.0 °F 92% 30.18 in 2.5 mi Calm Calm - N/A   Mostly Cloudy
3:23 AM 28.9 °F - 28.0 °F 96% 30.18 in 1.0 mi Calm Calm - N/A   Mist
3:45 AM 28.9 °F - 28.0 °F 96% 30.17 in 0.5 mi Calm Calm - N/A Fog Light Freezing Fog
3:53 AM 28.9 °F - 28.0 °F 96% 30.18 in 0.8 mi Calm Calm - N/A   Mist
3:55 AM 28.9 °F - 28.0 °F 96% 30.17 in 1.2 mi Calm Calm - N/A   Scattered Clouds
3:58 AM 28.9 °F - 28.0 °F 96% 30.17 in 3.0 mi Calm Calm - N/A   Scattered Clouds
4:38 AM 30.0 °F - 28.9 °F 96% 30.17 in 2.5 mi Calm Calm - N/A   Scattered Clouds
4:45 AM 30.0 °F - 28.9 °F 96% 30.17 in 10.0 mi Calm Calm - N/A   Scattered Clouds
4:53 AM 28.9 °F 25.2 °F 28.0 °F 96% 30.17 in 10.0 mi ESE 3.5 mph - N/A   Partly Cloudy
5:15 AM 32.0 °F - 30.0 °F 92% 30.16 in 2.5 mi Calm Calm - N/A   Mostly Cloudy
5:21 AM 30.9 °F - 30.9 °F 100% 30.16 in 3.0 mi Calm Calm - N/A   Mostly Cloudy
5:36 AM 30.9 °F - 30.0 °F 96% 30.16 in 1.8 mi Calm Calm - N/A   Overcast
5:53 AM 30.0 °F - 28.9 °F 96% 30.16 in 0.5 mi Calm Calm - N/A Fog Light Freezing Fog
6:04 AM 30.0 °F - 28.9 °F 96% 30.15 in 2.0 mi Calm Calm - N/A   Mostly Cloudy
6:17 AM 28.9 °F - 28.9 °F 100% 30.15 in 1.0 mi Calm Calm - N/A   Mist
6:25 AM 28.9 °F - 28.0 °F 96% 30.14 in 0.8 mi Calm Calm - N/A   Mist
6:43 AM 30.0 °F - 28.0 °F 92% 30.15 in 0.5 mi Calm Calm - N/A Fog Light Freezing Fog
6:53 AM 30.0 °F - 28.9 °F 96% 30.16 in 0.5 mi Calm Calm - N/A Fog Light Freezing Fog
7:24 AM 30.0 °F 26.5 °F 28.9 °F 96% 30.14 in 1.2 mi East 3.5 mph - N/A   Overcast
7:46 AM 30.0 °F - 30.0 °F 100% 30.13 in 2.5 mi Calm Calm - N/A   Overcast
7:53 AM 30.9 °F - 30.0 °F 96% 30.14 in 3.0 mi Calm Calm - N/A   Overcast
8:01 AM 30.9 °F - 30.0 °F 96% 30.13 in 2.5 mi Calm Calm - N/A   Overcast
8:10 AM 30.9 °F 27.5 °F 30.9 °F 100% 30.13 in 1.8 mi WNW 3.5 mph - N/A   Overcast
8:13 AM 30.9 °F - 30.9 °F 100% 30.13 in 2.0 mi Calm Calm - N/A   Overcast
8:40 AM 32.0 °F - 30.9 °F 96% 30.13 in 5.0 mi Calm Calm - N/A   Overcast
8:49 AM 32.0 °F - 30.2 °F 93% 30.12 in 10.0 mi Calm Calm - N/A   Overcast
8:53 AM 32.0 °F 28.7 °F 30.9 °F 96% 30.13 in 10.0 mi West 3.5 mph - N/A   Overcast
9:53 AM 41.0 °F 34.7 °F 37.9 °F 89% 30.11 in 10.0 mi East 10.4 mph 17.3 mph N/A   Overcast
10:53 AM 46.0 °F 41.9 °F 37.0 °F 71% 30.12 in 10.0 mi SE 8.1 mph 17.3 mph N/A   Overcast
11:53 AM 46.0 °F 40.6 °F 37.0 °F 71% 30.10 in 10.0 mi SSE 11.5 mph 26.5 mph N/A   Overcast
12:53 PM 46.0 °F 40.6 °F 36.0 °F 68% 30.09 in 10.0 mi SE 11.5 mph 23.0 mph N/A   Overcast
1:53 PM 45.0 °F 40.1 °F 36.0 °F 71% 30.09 in 10.0 mi SE 9.2 mph 21.9 mph 0.00 in Rain Light Rain
2:49 PM 42.8 °F 35.8 °F 37.4 °F 81% 30.09 in 2.5 mi SE 13.8 mph 29.9 mph 0.08 in Rain Rain
2:53 PM 43.0 °F 36.0 °F 37.9 °F 82% 30.09 in 2.5 mi SE 13.8 mph 27.6 mph 0.09 in Rain Rain
3:13 PM 42.1 °F 34.9 °F 37.0 °F 82% 30.08 in 3.0 mi SE 13.8 mph 28.8 mph 0.04 in Rain Rain
3:53 PM 42.1 °F 34.9 °F 37.0 °F 82% 30.07 in 4.0 mi SE 13.8 mph 34.5 mph 0.08 in Rain Light Rain
4:31 PM 42.1 °F 34.5 °F 37.0 °F 82% 30.05 in 4.0 mi SE 15.0 mph 32.2 mph 0.02 in Rain Light Rain
4:53 PM 42.1 °F 34.2 °F 36.0 °F 79% 30.05 in 7.0 mi SE 16.1 mph 33.4 mph 0.03 in Rain Light Rain
5:53 PM 42.1 °F 35.7 °F 37.0 °F 82% 30.03 in 3.0 mi SE 11.5 mph 33.4 mph 0.04 in Rain Light Rain
6:53 PM 42.1 °F 35.2 °F 37.0 °F 82% 30.02 in 6.0 mi ESE 12.7 mph 28.8 mph 0.06 in Rain Light Rain
7:53 PM 42.1 °F 34.2 °F 37.0 °F 82% 30.01 in 8.0 mi ESE 16.1 mph 33.4 mph 0.05 in Rain Light Rain
8:53 PM 42.1 °F 34.9 °F 37.0 °F 82% 30.01 in 5.0 mi SE 13.8 mph 34.5 mph 0.05 in Rain Light Rain
9:53 PM 41.0 °F 33.9 °F 37.0 °F 86% 30.02 in 6.0 mi SE 12.7 mph 27.6 mph 0.03 in Rain Light Rain
10:53 PM 41.0 °F 35.2 °F 36.0 °F 82% 30.01 in 10.0 mi ESE 9.2 mph 23.0 mph 0.00 in   Overcast
11:31 PM 42.1 °F 35.7 °F 36.0 °F 79% 30.00 in 9.0 mi SE 11.5 mph 23.0 mph 0.00 in Rain Light Rain
11:53 PM 42.1 °F 34.9 °F 36.0 °F 79% 30.00 in 10.0 mi ESE 13.8 mph 25.3 mph 0.00 in   Overcast